www.pogodaiklimat.ru

Погода и климат >> Архив погоды >> Австралия >> Argyle Aero


ПОГОДА в Argyle Aero

  • Прогноз погоды в Argyle Aero
  • Монитор погоды в Argyle Aero
  • Климат города

АРХИВ ПОГОДЫ в Argyle Aero

Время (UTC), дата Ветер
(напр.,м/с)
 
Видим.   Явления Облачность Т
(С)
Тd
(С)
f
(%)
Тe
(С)
Тes
(С)
Комфортность P
(гПа)
Po
(гПа)
Тmin
(С)
Tmax
(С)
R
(мм)
R24
(мм)
S
(см)
22 10.11 В 2 н/о н/о +29.2 -0.1 15 +27 +27 жарко 1009.7 991.4
00 11.11 В 2 н/о н/о +34.0 -0.6 11 +30 +30 жарко 1010.4 992.1
01 11.11 С 5 н/о н/о +35.9 -0.5 10 +32 +32 жарко 1010.1 991.8 +26.1
03 11.11 СВ 5 н/о н/о +37.9 +5.8 14 +35 +35 очень
жарко
1008.4 990.1
04 11.11 СВ 4 н/о н/о +38.1 +1.2 10 +35 +35 очень
жарко
1007.1 988.9
06 11.11 Ю 3 н/о н/о +39.2 +0.6 9 +35 +35 очень
жарко
1005.8 987.6
07 11.11 С 3 н/о н/о +39.0 +0.4 9 +35 +35 очень
жарко
1005.3 987.1
10 11.11 С 2 н/о н/о +36.1 +1.0 11 +33 +33 жарко 1006.3 988.1
12 11.11 В 2 н/о н/о +33.4 +1.3 13 +30 +30 жарко 1007.4 989.2
13 11.11 С 4 н/о н/о +33.0 +10.9 26 +33 +33 жарко 1008.1 989.8 +40.4
15 11.11 С 5 н/о н/о +32.1 +13.8 33 +33 +33 жарко 1007.5 989.3
16 11.11 С 4 н/о н/о +31.1 +14.3 36 +33 +33 душно 1007.4 989.2
18 11.11 С 3 н/о н/о +29.3 +15.8 44 +32 +32 душно 1007.0 988.8
19 11.11 ЮВ 1 н/о н/о +28.3 +15.9 47 +31 +31 душно 1007.4 989.2
21 11.11 ЮВ 2 н/о н/о +26.2 +16.2 54 +30 +30 душно 1009.0 990.7
22 11.11 штиль 0 н/о н/о +28.0 +17.5 53 +32 +32 душно 1009.7 991.4
00 12.11 СЗ 2 н/о н/о +33.2 +17.8 40 +37 +37 очень
душно
1009.9 991.6
01 12.11 СЗ 3 н/о н/о +36.2 +14.2 27 +37 +37 очень
жарко
1009.4 991.1 +26.3
03 12.11 С 6 н/о н/о +38.4 +9.0 17 +37 +37 очень
жарко
1007.5 989.3
04 12.11 В 3 н/о н/о +39.7 +7.2 14 +37 +37 очень
жарко
1006.5 988.3
06 12.11 З 3 н/о н/о +41.2 +7.3 13 +39 +39 очень
жарко
1004.3 986.1
07 12.11 С 5 н/о н/о +40.5 +9.8 16 +39 +39 очень
жарко
1003.6 985.4
10 12.11 СВ 4 н/о н/о +36.6 +10.7 21 +36 +36 очень
жарко
1004.7 986.5
12 12.11 С 3 н/о н/о +35.1 +8.0 19 +33 +33 жарко 1006.0 987.8
13 12.11 С 6 н/о н/о +34.1 +18.2 39 +38 +38 очень
душно
1006.5 988.3 +42.2
15 12.11 С 4 н/о н/о +32.3 +18.1 43 +37 +37 очень
душно
1006.3 988.1
16 12.11 С 4 н/о н/о +31.3 +18.3 46 +36 +36 очень
душно
1006.1 987.9
18 12.11 С 3 н/о н/о +30.2 +20.2 55 +37 +37 очень
душно
1005.9 987.7
19 12.11 С 3 н/о н/о +30.1 +21.2 59 +38 +38 очень
душно
1006.1 987.9
21 12.11 С 3 н/о н/о +29.6 +21.8 63 +38 +38 очень
душно
1007.3 989.1
22 12.11 С 4 н/о 1/0
[]
+30.9 +22.2 60 +40 +41 очень
душно
1007.9 989.6
00 13.11 ЮЗ 3 н/о н/о +34.7 +19.5 41 +40 +40 очень
душно
1008.2 989.9
01 13.11 Ю 4 н/о н/о +36.5 +17.1 32 +39 +39 очень
душно
1007.9 989.6 +29.6
03 13.11 Ю 4 н/о н/о +40.0 +16.8 26 +42 +42 опасность
перегрева
1006.2 988.0
04 13.11 З 3 н/о 5/0
[]
+39.2 +16.2 26 +41 +56 опасность
перегрева
1005.2 987.0
06 13.11 С 4 н/о н/о +39.9 +15.5 24 +41 +41 опасность
перегрева
1003.4 985.2
07 13.11 В 5 н/о 9/0
[]
+40.2 +16.4 25 +42 +45 опасность
перегрева
1003.1 984.9
10 13.11 СВ 7 н/о 6/0
[]
+34.9 +18.0 37 +39 +39 очень
душно
1004.4 986.2
12 13.11 С 5 н/о н/о +35.0 +16.8 34 +38 +38 очень
душно
1006.3 988.1
13 13.11 С 7 н/о 3/0
[]
+33.1 +17.7 40 +37 +37 очень
душно
1006.9 988.7 +41.5
15 13.11 С 4 н/о н/о +32.0 +19.3 47 +38 +38 очень
душно
1007.0 988.8
16 13.11 С 5 н/о 1/0
[]
+31.5 +19.8 50 +38 +38 очень
душно
1006.2 988.0
18 13.11 СЗ 2 н/о н/о +30.6 +21.1 57 +38 +38 очень
душно
1006.5 988.3
19 13.11 СЗ 3 н/о 9/0
[]
+30.6 +21.1 57 +38 +38 очень
душно
1006.0 987.8
21 13.11 С 4 н/о н/о +30.3 +21.7 60 +39 +39 очень
душно
1007.8 989.5
22 13.11 С 5 н/о 9/0
[]
+30.5 +21.6 59 +39 +39 очень
душно
1008.7 990.4
00 14.11 ЮЗ 2 н/о н/о +34.8 +20.4 43 +41 +41 опасность
перегрева
1009.4 991.1
01 14.11 Ю 3 н/о 4/0
[]
+37.1 +17.6 32 +40 +51 опасность
солнечного
удара
1009.2 990.9
03 14.11 ЮВ 4 н/о н/о +38.9 +15.9 26 +41 +41 опасность
перегрева
1008.0 989.7
04 14.11 ЮВ 4 н/о н/о +39.9 +16.1 25 +42 +42 опасность
перегрева
1006.9 988.7
06 14.11 СВ 5 н/о н/о +40.2 +17.0 26 +43 +43 опасность
перегрева
1004.9 986.7
07 14.11 СВ 4 н/о туман местами 10/10 1000 м
[]
+32.6 +20.5 49 +39 +39 очень
душно
1004.9 986.7
10 14.11 С 9 н/о {туман} 10/0
[]
+34.0 +20.0 44 +40 +40 очень
душно
1007.3 989.1
12 14.11 СЗ 7 н/о н/о +30.3 +19.6 53 +36 +36 очень
душно
1008.4 990.1
13 14.11 СЗ 3 н/о {туман} н/о +30.4 +19.7 53 +37 +37 очень
душно
1008.1 989.8
15 14.11 ЮВ 2 н/о н/о +28.7 +20.7 62 +36 +36 очень
душно
1008.6 990.3
16 14.11 В 2 н/о 6/0
[]
+28.6 +20.9 63 +36 +36 очень
душно
1009.3 991.0
18 14.11 ЮВ 2 н/о н/о +27.8 +20.6 65 +35 +35 очень
душно
1009.0 990.7
19 14.11 штиль 0 н/о 5/0
[]
+27.7 +21.3 68 +35 +35 очень
душно
1009.8 991.5
21 14.11 СВ 2 н/о н/о +27.9 +21.7 69 +36 +36 очень
душно
1011.1 992.8
22 14.11 С 3 н/о в посл. час дождь {туман} н/о +29.5 +21.7 63 +38 +38 очень
душно
1011.7 993.4
00 15.11 С 4 н/о н/о +31.5 +22.2 58 +41 +41 опасность
перегрева
1012.4 994.1
01 15.11 З 4 н/о {туман} н/о +32.8 +21.6 52 +41 +41 опасность
перегрева
1012.3 994.0 +27.6
03 15.11 СВ 3 н/о н/о +36.9 +21.1 40 +44 +44 опасность
перегрева
1010.5 992.2
04 15.11 СЗ 4 н/о 1/1 1500 м
[]
+38.3 +19.7 34 +43 +56 опасность
перегрева
1009.2 990.9
06 15.11 С 3 н/о н/о +38.5 +18.9 32 +43 +43 опасность
перегрева
1007.1 988.9
07 15.11 С 4 н/о 1/0
[]
+39.8 +17.3 27 +42 +49 опасность
перегрева
1006.3 988.1
10 15.11 С 2 н/о н/о +35.5 +19.0 38 +40 +40 очень
душно
1007.2 989.0
12 15.11 В 4 н/о н/о +32.6 +17.2 40 +36 +36 очень
душно
1008.7 990.4
13 15.11 СВ 7 н/о 3/0
[]
+30.3 +20.0 54 +37 +37 очень
душно
1009.7 991.4 +40.4
15 15.11 С 3 н/о н/о +31.2 +20.2 52 +38 +38 очень
душно
1010.2 991.9
16 15.11 С 2 н/о н/о +31.0 +20.9 55 +38 +38 очень
душно
1009.5 991.2
18 15.11 С 2 н/о н/о +29.0 +18.1 52 +34 +34 очень
душно
1008.6 990.3
19 15.11 СВ 3 н/о н/о +28.4 +19.1 57 +34 +34 очень
душно
1009.4 991.1
21 15.11 С 2 н/о н/о +28.8 +19.4 57 +35 +35 очень
душно
1010.4 992.1
22 15.11 С 3 н/о 1/0
[]
+30.1 +20.1 55 +37 +38 очень
душно
1011.1 992.8
00 16.11 СЗ 3 н/о н/о +33.8 +19.5 43 +39 +39 очень
душно
1011.4 993.1
01 16.11 С 4 н/о н/о +36.6 +19.5 37 +42 +42 опасность
перегрева
1011.1 992.8 +28.3
03 16.11 СЗ 4 н/о н/о +37.4 +17.4 31 +40 +40 очень
душно
1008.9 990.6
04 16.11 С 5 н/о н/о +38.8 +17.5 29 +42 +42 опасность
перегрева
1007.1 988.9
06 16.11 З 6 н/о н/о +25.5 +20.1 72 +31 +31 очень
душно
1007.0 988.8
07 16.11 ЮВ 3 н/о {туман} 10/10 1000 м
[]
+27.5 +21.3 69 +35 +35 очень
душно
1007.9 989.6
10 16.11 СЗ 4 н/о {туман} 10/0
[]
+26.8 +20.9 70 +34 +34 очень
душно
1007.9 989.6
12 16.11 С 3 н/о н/о +27.8 +20.4 64 +34 +34 очень
душно
1010.4 992.1
13 16.11 С 3 н/о {туман} 9/0
[]
+27.6 +20.7 66 +34 +34 очень
душно
1010.2 991.9 +41.0
15 16.11 З 2 н/о н/о +27.7 +21.3 68 +35 +35 очень
душно
1009.1 990.8
16 16.11 ЮЗ 2 н/о 5/0
[]
+27.6 +20.7 66 +34 +34 очень
душно
1009.0 990.7
18 16.11 В 2 н/о н/о +25.7 +21.6 78 +33 +33 очень
душно
1009.5 991.2
19 16.11 ЮВ 2 н/о н/о +25.6 +21.7 79 +33 +33 очень
душно
1009.7 991.4
21 16.11 СЗ 1 н/о н/о +26.4 +22.5 79 +35 +35 очень
душно
1011.0 992.7
22 16.11 СЗ 3 н/о н/о +27.6 +21.9 71 +36 +36 очень
душно
1011.8 993.5
00 17.11 СВ 2 н/о н/о +31.1 +19.4 50 +37 +37 очень
душно
1012.2 993.9
01 17.11 СВ 5 н/о 8/0 2000 м
[]
+33.0 +19.1 44 +38 +43 очень
душно
1012.0 993.7 +22.0
03 17.11 СВ 5 н/о н/о +33.5 +19.9 45 +40 +40 очень
душно
1010.3 992.0
04 17.11 С 3 н/о н/о +35.2 +19.9 41 +41 +41 опасность
перегрева
1009.0 990.7
06 17.11 С 4 н/о н/о +36.4 +18.9 36 +41 +41 опасность
перегрева
1006.9 988.7
07 17.11 З 3 н/о 1/0 2000 м
[]
+36.8 +17.4 32 +40 +48 очень
душно
1005.9 987.7
10 17.11 СВ 3 н/о н/о +33.7 +16.6 36 +37 +37 очень
душно
1006.4 988.2
12 17.11 СВ 3 н/о н/о +32.7 +18.5 43 +37 +37 очень
душно
1007.8 989.5
13 17.11 СВ 3 н/о 9/0
[]
+32.4 +18.9 45 +38 +38 очень
душно
1007.8 989.5 +37.7
15 17.11 З 4 н/о н/о +32.1 +20.7 51 +39 +39 очень
душно
1009.1 990.8
16 17.11 ЮЗ 10 3000 м туман 10/10 300 м
[]
+23.6 +22.2 92 +31 +31 очень
душно
1010.1 991.8
18 17.11 ЮВ 2 н/о н/о +24.7 +20.8 79 +31 +31 очень
душно
1009.7 991.4
19 17.11 ЮВ 3 н/о {туман} 10/0
[]
+24.6 +19.9 75 +30 +30 очень
душно
1009.3 991.0
21 17.11 В 2 н/о н/о +24.4 +21.3 83 +31 +31 очень
душно
1010.7 992.4

 

Местоположение метеостанции Argyle Aero (Западная Австралия, Австралия): широта -16.63 долгота 128.45 высота над уровнем моря 165 м.

В архиве по умолчанию представлена погода в Argyle Aero за последнюю неделю. Архивные данные за месяц целиком и за предыдущие месяцы, начиная с января 2011 года, Вы можете получить, выбрав интересующий диапазон дат из раскрывающегося списка и нажав кнопку "Ввод!".


*Определитесь, кто Вы:
робот инопланетянин человек

Внимание! Время в таблицах - всемирное. Для получения местного времени необходимо прибавить поправку, которая в Argyle Aero равна 8 ч.

Смотрите также архив погоды в соседних городах и на ближайших метеорологических станциях:

Погода в Kununurra (Западная Австралия, Австралия) (99 км)
Погода в Wyndham Aero (Западная Австралия, Австралия) (130 км)
Погода в Halls Creek Airport (Западная Австралия, Австралия) (197 км)
Погода в Victoria River Downs (Северная территория, Австралия) (275 км)
Погода в Port Keats Aero (Северная территория, Австралия) (289 км)
Погода в Lajamanu (Северная территория, Австралия) (299 км)
Погода в Manbulloo Csiro (Северная территория, Австралия) (313 км)
Погода в Kalumburu (Западная Австралия, Австралия) (323 км)
Погода в Fitzroy Crossing Aero (Западная Австралия, Австралия) (352 км)
Погода в Truscott (Западная Австралия, Австралия) (360 км)

Пояснения к столбцам:

Ветер - указаны скорость ветра в м/с - средняя за 10 мин, порывы в срок и между сроками (в фигурных скобках) и направление, откуда дует ветер: С - северный, СВ - северо-восточный, В - восточный, ЮВ - юго-восточный, Ю - южный, ЮЗ - юго-западный, З - западный, СЗ - северо-западный.
Видимость - горизонтальная дальность видимости в метрах или километрах. При видимости от 1 до 10 км при отсутствии осадков обычно наблюдается дымка, при ухудшении видимости до 1 км и менее - туман. В сухую погоду видимость может ухудшаться дымом, пылью или мглою.
Явления - указаны атмосферные явления, наблюдавшиеся в срок или в последний час перед сроком; фигурными скобками обозначены явления, наблюдавшиеся между сроками (за 1-3 часа до срока); квадратными скобками обозначены град или гололедные отложения с указанием их диаметра в мм.
Облачность - указаны через наклонную черту общая и нижняя облачность в баллах и высота нижней границы облаков в метрах; квадратными скобками обозначены формы облаков: Ci - перистые, Cs - перисто-слоистые, Cc - перисто-кучевые, Ac - высококучевые, As - высокослоистые, Sc - слоисто-кучевые, Ns - слоисто-дождевые, Cu - кучевые, Cb - кучево-дождевые. Подробнее классификацию облаков см. в Атласе облаков (PDF).
T - Температура воздуха - температура, измеренная на высоте 2 м над землей.
Td - Температура точки росы - температура, при понижении до которой содержащийся в воздухе водяной пар достигнет насыщения.
f - Относительная влажность воздуха - влажноcть воздуха, измеренная на высоте 2 м над землей.
Te - Эффективная температура - температура, которую ощущает одетый по сезону человек в тени. Характеристика душности погоды. При расчете учитывается влияние влажности воздуха и скорости ветра на теплоощущения человека.
Tes - Эффективная температура на солнце - температура, которую ощущает человек, с поправкой на солнечный нагрев. Характеристика знойности погоды. Зависит от высоты солнца над горизонтом, облачности и скорости ветра. Ночью, в пасмурную погоду, а также при ветре 12 м/с и более поправка равна нулю.
P - Атмосферное давление - приведенное к уровню моря атмосферное давление.
Po - Атмосферное давление - измеренное на уровне метеостанции атмосферное давление.
Tmin - Минимальная температура - минимум температуры воздуха на высоте 2 м над землей.
Tmax - Максимальная температура - максимум температуры воздуха на высоте 2 м над землей.
R - Количество осадков - Количество выпавших осадков за период времени, мм. При наведении курсора мыши на число - период времени, за который выпало указанное количество осадков.
R24 - Количество осадков - Количество выпавших осадков за 24 часа, мм.
S - Снежный покров - Высота снежного покрова, см. При наведении курсора мыши на число - состояние снежного покрова и степень покрытия местности в баллах.